DW5852 Weather Reports


Display with metric or nautical units.
time (UTC)temp
F
wind
direction
speed
MPH
gust
MPH
rain 1hr
in
rain 24hr
in
rain mn
in
humidity
%
barometer
mb
20260509033215 64 262 0.0 0.0 0.00 0.00 0.00 21 1029.5
20260509032715 64 256 0.0 1.0 0.00 0.00 0.00 21 1029.5
20260509032212 64 243 0.0 1.0 0.00 0.00 0.00 21 1029.3
20260509031715 64 266 0.0 0.0 0.00 0.00 0.00 21 1029.4
20260509031212 65 235 0.0 3.0 0.00 0.00 0.00 20 1029.3
20260509030715 65 253 0.0 6.0 0.00 0.00 0.00 20 1029.2
20260509030212 65 266 0.0 1.0 0.00 0.00 0.00 20 1029.1
20260509025715 65 274 0.0 7.0 0.00 0.00 0.00 20 1029.0
20260509025215 65 235 0.0 5.0 0.00 0.00 0.00 20 1028.9
20260509024715 65 271 0.0 3.0 0.00 0.00 0.00 20 1028.8
20260509024212 66 244 0.0 0.0 0.00 0.00 0.00 20 1028.8
20260509023712 66 253 0.0 1.0 0.00 0.00 0.00 19 1028.7
20260509023212 66 270 0.0 3.0 0.00 0.00 0.00 19 1028.6
20260509022715 66 250 0.0 1.0 0.00 0.00 0.00 19 1028.5
20260509022212 66 260 0.0 4.0 0.00 0.00 0.00 19 1028.4
20260509021712 67 277 0.0 1.0 0.00 0.00 0.00 19 1028.3
20260509021215 67 248 0.0 5.0 0.00 0.00 0.00 18 1028.1
20260509020715 67 250 2.0 11.0 0.00 0.00 0.00 18 1028.1
20260509020212 67 260 0.0 3.0 0.00 0.00 0.00 18 1028.0
20260509015712 68 252 1.0 2.0 0.00 0.00 0.00 17 1027.8
20260509015215 68 305 0.0 11.0 0.00 0.00 0.00 17 1027.7
20260509014715 68 277 0.0 7.0 0.00 0.00 0.00 17 1027.7
20260509014212 69 221 0.0 0.0 0.00 0.00 0.00 16 1027.5
20260509013715 69 232 0.0 0.0 0.00 0.00 0.00 16 1027.4
20260509013212 70 244 0.0 0.0 0.00 0.00 0.00 15 1027.2
20260509012712 71 250 0.0 4.0 0.00 0.00 0.00 15 1027.1
20260509012215 72 284 0.0 1.0 0.00 0.00 0.00 14 1026.9
20260509011715 72 248 0.0 1.0 0.00 0.00 0.00 14 1026.8
20260509011215 72 256 0.0 1.0 0.00 0.00 0.00 14 1026.8
20260509010712 72 210 0.0 10.0 0.00 0.00 0.00 14 1026.7
20260509010212 72 249 0.0 3.0 0.00 0.00 0.00 14 1026.6
20260509005712 73 238 0.0 8.0 0.00 0.00 0.00 14 1026.5
20260509005215 73 235 0.0 10.0 0.00 0.00 0.00 14 1026.4
20260509004715 73 249 0.0 7.0 0.00 0.00 0.00 13 1026.3
20260509004212 73 255 0.0 8.0 0.00 0.00 0.00 13 1026.3
20260509003712 73 253 0.0 1.0 0.00 0.00 0.00 14 1026.1
20260509003215 73 227 1.0 5.0 0.00 0.00 0.00 14 1026.1
20260509002715 73 302 0.0 2.0 0.00 0.00 0.00 14 1026.0
20260509002212 74 249 0.0 0.0 0.00 0.00 0.00 14 1025.9
20260509001712 75 262 0.0 0.0 0.00 0.00 0.00 14 1025.8
20260509001212 75 263 0.0 2.0 0.00 0.00 0.00 14 1025.8
20260509000715 75 294 0.0 0.0 0.00 0.00 0.00 13 1025.6
20260509000212 76 245 0.0 0.0 0.00 0.00 0.00 13 1025.6
20260508235715 76 260 0.0 0.0 0.00 0.00 0.00 14 1025.3
20260508235212 75 261 0.0 0.0 0.00 0.00 0.00 13 1025.3
20260508234715 76 262 0.0 0.0 0.00 0.00 0.00 14 1025.2
20260508234215 76 148 0.0 0.0 0.00 0.00 0.00 14 1025.0
20260508233715 76 354 0.0 0.0 0.00 0.00 0.00 14 1025.0
20260508233215 76 160 0.0 0.0 0.00 0.00 0.00 15 1024.9
20260508232712 74 143 0.0 0.0 0.00 0.00 0.00 16 1024.8
20260508232215 74 186 0.0 0.0 0.00 0.00 0.00 16 1024.6
20260508231715 73 181 0.0 0.0 0.00 0.00 0.00 16 1024.5
20260508231212 73 155 0.0 1.0 0.00 0.00 0.00 16 1024.4
20260508230712 73 139 0.0 1.0 0.00 0.00 0.00 16 1024.3
20260508230215 73 145 0.0 0.0 0.00 0.00 0.00 16 1024.2
20260508225712 73 190 0.0 0.0 0.00 0.00 0.00 16 1024.2
20260508225215 74 131 0.0 0.0 0.00 0.00 0.00 15 1024.1
20260508224715 74 103 0.0 0.0 0.00 0.00 0.00 17 1024.1
20260508224215 72 163 0.0 0.0 0.00 0.00 0.00 17 1024.0
20260508223715 72 143 0.0 1.0 0.00 0.00 0.00 17 1024.0
20260508223212 72 168 0.0 6.0 0.00 0.00 0.00 17 1023.9
20260508222712 72 195 0.0 0.0 0.00 0.00 0.00 17 1023.8
20260508222215 72 79 0.0 1.0 0.00 0.00 0.00 17 1023.8
20260508221715 72 96 0.0 0.0 0.00 0.00 0.00 17 1023.8
20260508221215 73 73 0.0 1.0 0.00 0.00 0.00 16 1023.8
20260508220712 74 86 0.0 6.0 0.00 0.00 0.00 15 1023.7
20260508220215 75 101 0.0 1.0 0.00 0.00 0.00 15 1023.6
20260508215712 75 70 0.0 1.0 0.00 0.00 0.00 15 1023.6
20260508215215 76 231 0.0 0.0 0.00 0.00 0.00 15 1023.6
20260508214712 76 69 0.0 1.0 0.00 0.00 0.00 14 1023.5
20260508214212 77 88 0.0 0.0 0.00 0.00 0.00 14 1023.4
20260508213712 77 108 0.0 0.0 0.00 0.00 0.00 15 1023.4
20260508213215 76 108 0.0 1.0 0.00 0.00 0.00 15 1023.4
20260508212712 75 138 0.0 1.0 0.00 0.00 0.00 16 1023.3
20260508212212 74 143 0.0 6.0 0.00 0.00 0.00 16 1023.2
20260508211715 74 104 0.0 12.0 0.00 0.00 0.00 15 1023.1
20260508211215 75 91 0.0 2.0 0.00 0.00 0.00 15 1023.1
20260508210712 75 158 0.0 9.0 0.00 0.00 0.00 16 1023.0
20260508210212 75 8 0.0 5.0 0.00 0.00 0.00 15 1022.9
20260508205715 75 183 0.0 2.0 0.00 0.00 0.00 15 1022.9
20260508205212 75 256 0.0 2.0 0.00 0.00 0.00 15 1022.8
20260508204712 75 215 0.0 0.0 0.00 0.00 0.00 15 1022.8
20260508204215 75 212 0.0 0.0 0.00 0.00 0.00 16 1022.9
20260508203715 74 215 0.0 6.0 0.00 0.00 0.00 16 1022.9
20260508203212 74 108 0.0 6.0 0.00 0.00 0.00 15 1022.8
20260508202712 74 200 0.0 8.0 0.00 0.00 0.00 15 1022.8
20260508202215 75 111 0.0 5.0 0.00 0.00 0.00 15 1022.8
20260508201712 76 159 0.0 0.0 0.00 0.00 0.00 15 1022.9
20260508201215 75 155 0.0 0.0 0.00 0.00 0.00 16 1022.8
20260508200712 74 272 0.0 0.0 0.00 0.00 0.00 16 1022.8
20260508200212 74 279 0.0 2.0 0.00 0.00 0.00 16 1022.8
20260508195715 74 238 0.0 1.0 0.00 0.00 0.00 17 1022.7
20260508195212 73 165 0.0 9.0 0.00 0.00 0.00 16 1022.7
20260508194712 74 180 0.0 8.0 0.00 0.00 0.00 17 1022.7
20260508194215 73 305 0.0 1.0 0.00 0.00 0.00 16 1022.5
20260508193715 73 193 0.0 1.0 0.00 0.00 0.00 16 1022.6
20260508193212 73 190 0.0 8.0 0.00 0.00 0.00 17 1022.5
20260508192712 73 162 2.0 13.0 0.00 0.00 0.00 17 1022.4
20260508192215 72 250 0.0 0.0 0.00 0.00 0.00 17 1022.4
20260508191712 72 149 0.0 9.0 0.00 0.00 0.00 17 1022.6
20260508191215 72 158 0.0 1.0 0.00 0.00 0.00 17 1022.5
20260508190712 72 201 0.0 0.0 0.00 0.00 0.00 17 1022.4
20260508190215 72 152 0.0 0.0 0.00 0.00 0.00 17 1022.4
20260508185715 71 250 0.0 1.0 0.00 0.00 0.00 17 1022.4
20260508185212 71 358 0.0 8.0 0.00 0.00 0.00 18 1022.4
20260508184715 70 142 0.0 1.0 0.00 0.00 0.00 18 1022.3
20260508184212 68 248 0.0 4.0 0.00 0.00 0.00 19 1022.4
20260508183715 68 132 0.0 9.0 0.00 0.00 0.00 18 1022.4
20260508183215 69 69 0.0 2.0 0.00 0.00 0.00 19 1022.3
20260508182712 69 52 0.0 4.0 0.00 0.00 0.00 18 1022.4
20260508182215 70 198 0.0 2.0 0.00 0.00 0.00 19 1022.5
20260508181712 69 123 0.0 3.0 0.00 0.00 0.00 19 1022.5
20260508181215 70 113 0.0 4.0 0.00 0.00 0.00 18 1022.5
20260508180715 70 30 0.0 5.0 0.00 0.00 0.00 18 1022.4
20260508180215 69 191 0.0 0.0 0.00 0.00 0.00 19 1022.4
20260508175712 68 165 0.0 0.0 0.00 0.00 0.00 20 1022.5
20260508175212 66 202 0.0 10.0 0.00 0.00 0.00 20 1022.6
20260508174712 65 49 0.0 11.0 0.00 0.00 0.00 20 1022.6
20260508174212 66 122 0.0 5.0 0.00 0.00 0.00 20 1022.6
20260508173715 68 28 0.0 0.0 0.00 0.00 0.00 19 1022.6
20260508173215 67 152 0.0 1.0 0.00 0.00 0.00 20 1022.5
20260508172715 67 77 0.0 1.0 0.00 0.00 0.00 20 1022.6
20260508172215 66 162 0.0 0.0 0.00 0.00 0.00 21 1022.7
20260508171715 66 88 0.0 1.0 0.00 0.00 0.00 21 1022.7
20260508171215 66 181 0.0 1.0 0.00 0.00 0.00 20 1022.8
20260508170715 67 140 0.0 0.0 0.00 0.00 0.00 20 1022.6
20260508170212 66 155 0.0 0.0 0.00 0.00 0.00 20 1022.6
20260508165712 67 238 0.0 0.0 0.00 0.00 0.00 20 1022.7
20260508165215 66 53 0.0 0.0 0.00 0.00 0.00 21 1022.7
20260508164712 65 6 0.0 0.0 0.00 0.00 0.00 21 1022.6
20260508164215 64 25 0.0 1.0 0.00 0.00 0.00 21 1022.6
20260508163712 65 305 0.0 0.0 0.00 0.00 0.00 21 1022.6
20260508163215 64 123 0.0 0.0 0.00 0.00 0.00 22 1022.7
20260508162712 63 343 0.0 0.0 0.00 0.00 0.00 22 1022.7
20260508162215 63 91 0.0 0.0 0.00 0.00 0.00 21 1022.6
20260508161712 62 58 0.0 1.0 0.00 0.00 0.00 22 1022.7
20260508161215 62 35 0.0 0.0 0.00 0.00 0.00 22 1022.6
20260508160715 62 337 0.0 1.0 0.00 0.00 0.00 21 1022.6
20260508160215 62 72 0.0 1.0 0.00 0.00 0.00 22 1022.6
20260508155712 62 104 0.0 1.0 0.00 0.00 0.00 23 1022.8
20260508155215 61 63 0.0 1.0 0.00 0.00 0.00 23 1022.8
20260508154715 61 75 0.0 1.0 0.00 0.00 0.00 23 1022.8
20260508154212 60 97 0.0 0.0 0.00 0.00 0.00 23 1022.8
20260508153715 61 85 0.0 0.0 0.00 0.00 0.00 23 1022.8
20260508153215 60 87 0.0 0.0 0.00 0.00 0.00 23 1022.8
20260508152712 60 86 0.0 0.0 0.00 0.00 0.00 23 1022.8
20260508152215 60 122 0.0 0.0 0.00 0.00 0.00 23 1022.8
20260508151715 60 30 0.0 0.0 0.00 0.00 0.00 23 1022.9
20260508151215 59 108 0.0 1.0 0.00 0.00 0.00 24 1022.9
20260508150715 58 316 0.0 0.0 0.00 0.00 0.00 24 1022.9
20260508150212 58 50 0.0 0.0 0.00 0.00 0.00 24 1022.9
20260508145715 57 41 0.0 0.0 0.00 0.00 0.00 25 1023.0
20260508145212 57 98 0.0 0.0 0.00 0.00 0.00 24 1023.1
20260508144712 57 58 0.0 0.0 0.00 0.00 0.00 24 1023.0
20260508144212 58 70 0.0 0.0 0.00 0.00 0.00 24 1023.2
20260508143715 57 94 0.0 0.0 0.00 0.00 0.00 24 1023.2
20260508143212 56 82 0.0 0.0 0.00 0.00 0.00 24 1023.1
20260508142715 55 233 0.0 0.0 0.00 0.00 0.00 25 1023.0
20260508142212 55 233 0.0 0.0 0.00 0.00 0.00 25 1023.1
20260508141715 54 89 0.0 0.0 0.00 0.00 0.00 25 1023.1
20260508141212 55 77 0.0 0.0 0.00 0.00 0.00 24 1023.1
20260508140715 55 66 0.0 0.0 0.00 0.00 0.00 25 1023.0
20260508140215 54 46 0.0 0.0 0.00 0.00 0.00 25 1023.1
20260508135715 53 70 0.0 0.0 0.00 0.00 0.00 25 1023.1
20260508135215 53 91 0.0 0.0 0.00 0.00 0.00 25 1023.1
20260508134715 53 10 0.0 0.0 0.00 0.00 0.00 26 1023.1
20260508134212 52 10 0.0 0.0 0.00 0.00 0.00 25 1023.0
20260508133715 52 338 0.0 0.0 0.00 0.00 0.00 26 1023.1
20260508133212 51 82 0.0 0.0 0.00 0.00 0.00 25 1023.1
20260508132712 51 79 0.0 0.0 0.00 0.00 0.00 26 1023.1
20260508132211 51 71 0.0 0.0 0.00 0.00 0.00 25 1023.1
20260508131712 51 97 0.0 0.0 0.00 0.00 0.00 25 1023.1
20260508131212 51 77 0.0 0.0 0.00 0.00 0.00 26 1023.1
20260508130715 51 98 0.0 0.0 0.00 0.00 0.00 26 1023.0
20260508130212 51 131 0.0 0.0 0.00 0.00 0.00 26 1023.0
20260508125715 50 80 0.0 0.0 0.00 0.00 0.00 26 1023.1
20260508125212 50 99 0.0 0.0 0.00 0.00 0.00 26 1023.0
20260508124711 49 107 0.0 0.0 0.00 0.00 0.00 26 1023.0
20260508124214 50 87 0.0 0.0 0.00 0.00 0.00 25 1023.0
20260508123711 50 30 0.0 0.0 0.00 0.00 0.00 26 1022.9
20260508123212 48 308 0.0 0.0 0.00 0.00 0.00 26 1022.8
20260508122711 48 239 0.0 0.0 0.00 0.00 0.00 27 1022.9
20260508122214 47 235 0.0 0.0 0.00 0.00 0.00 26 1022.9
20260508121714 46 249 0.0 0.0 0.00 0.00 0.00 27 1022.9
20260508121215 45 256 0.0 0.0 0.00 0.00 0.00 28 1022.9
20260508120712 45 256 0.0 0.0 0.00 0.00 0.00 28 1023.0
20260508120211 45 228 0.0 0.0 0.00 0.00 0.00 27 1023.2
20260508115714 45 153 0.0 0.0 0.00 0.00 0.00 26 1023.2
20260508115211 45 153 0.0 0.0 0.00 0.00 0.00 27 1023.3
20260508114714 46 155 0.0 0.0 0.00 0.00 0.00 26 1023.4
20260508114214 45 153 0.0 0.0 0.00 0.00 0.00 26 1023.5
20260508113711 45 156 0.0 0.0 0.00 0.00 0.00 26 1023.5
20260508113211 45 62 0.0 0.0 0.00 0.00 0.00 26 1023.6
20260508112711 46 62 0.0 0.0 0.00 0.00 0.00 25 1023.7
20260508112214 46 63 0.0 0.0 0.00 0.00 0.00 25 1023.9
20260508111714 47 62 0.0 0.0 0.00 0.00 0.00 24 1023.8
20260508111214 47 63 0.0 0.0 0.00 0.00 0.00 24 1023.8
20260508110711 48 62 0.0 0.0 0.00 0.00 0.00 23 1023.9
20260508110211 48 63 0.0 0.0 0.00 0.00 0.00 22 1023.9
20260508105715 48 253 0.0 0.0 0.00 0.00 0.00 23 1024.0
20260508105211 47 68 0.0 0.0 0.00 0.00 0.00 23 1024.0
20260508104712 48 67 0.0 0.0 0.00 0.00 0.00 23 1024.0
20260508104215 48 67 0.0 0.0 0.00 0.00 0.00 23 1024.1
20260508103714 48 95 0.0 0.0 0.00 0.00 0.00 22 1024.1
20260508103211 48 152 0.0 0.0 0.00 0.00 0.00 22 1024.1
20260508102712 49 152 0.0 0.0 0.00 0.00 0.00 22 1024.1
20260508102214 49 153 0.0 0.0 0.00 0.00 0.00 22 1024.1
20260508101711 49 235 0.0 0.0 0.00 0.00 0.00 22 1024.1
20260508101211 49 235 0.0 0.0 0.00 0.00 0.00 22 1024.1
20260508100714 49 235 0.0 0.0 0.00 0.00 0.00 22 1024.2
20260508100211 49 235 0.0 0.0 0.00 0.00 0.00 21 1024.3
20260508095715 49 235 0.0 0.0 0.00 0.00 0.00 22 1024.4
20260508095214 49 235 0.0 0.0 0.00 0.00 0.00 22 1024.4
20260508094711 48 235 0.0 0.0 0.00 0.00 0.00 21 1024.4
20260508094211 48 235 0.0 0.0 0.00 0.00 0.00 21 1024.5
20260508093715 49 235 0.0 0.0 0.00 0.00 0.00 22 1024.6
20260508093211 49 187 0.0 0.0 0.00 0.00 0.00 21 1024.7
20260508092711 49 249 0.0 0.0 0.00 0.00 0.00 21 1024.8
20260508092211 49 250 0.0 0.0 0.00 0.00 0.00 21 1025.0
20260508091711 49 249 0.0 0.0 0.00 0.00 0.00 21 1025.0
20260508091214 49 240 0.0 0.0 0.00 0.00 0.00 21 1025.1
20260508090711 49 240 0.0 0.0 0.00 0.00 0.00 21 1025.2
20260508090211 49 10 0.0 0.0 0.00 0.00 0.00 20 1025.2
20260508085712 49 9 0.0 0.0 0.00 0.00 0.00 20 1025.5
20260508085214 49 9 0.0 0.0 0.00 0.00 0.00 20 1025.6
20260508084714 50 9 0.0 0.0 0.00 0.00 0.00 20 1025.5
20260508084211 50 9 0.0 0.0 0.00 0.00 0.00 19 1025.6
20260508083714 50 9 0.0 0.0 0.00 0.00 0.00 19 1025.7
20260508083211 51 9 0.0 0.0 0.00 0.00 0.00 19 1025.8
20260508082714 51 87 0.0 0.0 0.00 0.00 0.00 19 1025.8
20260508082211 51 122 0.0 0.0 0.00 0.00 0.00 19 1025.8
20260508081711 51 123 0.0 0.0 0.00 0.00 0.00 18 1025.8
20260508081214 51 134 0.0 0.0 0.00 0.00 0.00 19 1025.9
20260508080714 51 139 0.0 0.0 0.00 0.00 0.00 18 1025.9
20260508080215 52 167 0.0 0.0 0.00 0.00 0.00 18 1026.1
20260508075714 52 167 0.0 0.0 0.00 0.00 0.00 18 1026.1
20260508075214 53 167 0.0 0.0 0.00 0.00 0.00 17 1026.2
20260508074712 53 97 0.0 0.0 0.00 0.00 0.00 17 1026.3
20260508074211 53 89 0.0 0.0 0.00 0.00 0.00 17 1026.4
20260508073711 53 68 0.0 0.0 0.00 0.00 0.00 17 1026.4
20260508073211 52 110 0.0 0.0 0.00 0.00 0.00 18 1026.5
20260508072711 52 101 0.0 0.0 0.00 0.00 0.00 18 1026.5
20260508072214 52 26 0.0 0.0 0.00 0.00 0.00 19 1026.6
20260508071711 53 27 0.0 0.0 0.00 0.00 0.00 19 1026.6
20260508071211 54 36 0.0 0.0 0.00 0.00 0.00 19 1026.5
20260508070714 54 71 0.0 0.0 0.00 0.00 0.00 21 1026.5
20260508070214 54 55 0.0 0.0 0.00 0.00 0.00 20 1026.5
20260508065711 54 73 0.0 0.0 0.00 0.00 0.00 20 1026.5
20260508065211 54 73 0.0 0.0 0.00 0.00 0.00 21 1026.5
20260508064715 55 70 0.0 0.0 0.00 0.00 0.00 21 1026.4
20260508064214 55 20 0.0 0.0 0.00 0.00 0.00 20 1026.4
20260508063712 55 317 0.0 0.0 0.00 0.00 0.00 19 1026.4
20260508063215 56 255 0.0 0.0 0.00 0.00 0.00 19 1026.4
20260508062711 56 238 0.0 0.0 0.00 0.00 0.00 18 1026.4
20260508062211 56 256 0.0 0.0 0.00 0.00 0.00 18 1026.3
20260508061714 56 293 0.0 0.0 0.00 0.00 0.00 17 1026.3
20260508061211 56 316 0.0 0.0 0.00 0.00 0.00 17 1026.3
20260508060714 56 266 0.0 3.0 0.00 0.00 0.00 17 1026.3
20260508060214 57 302 0.0 0.0 0.00 0.00 0.00 16 1026.3
20260508055714 57 316 0.0 0.0 0.00 0.00 0.00 16 1026.3
20260508055214 57 4 0.0 0.0 0.00 0.00 0.00 16 1026.3
20260508054712 57 276 0.0 0.0 0.00 0.00 0.00 15 1026.3
20260508054211 57 290 0.0 5.0 0.00 0.00 0.00 15 1026.3
20260508053711 57 319 0.0 4.0 0.00 0.00 0.00 15 1026.3
20260508053212 56 266 0.0 1.0 0.00 0.00 0.00 15 1026.2
20260508052712 56 248 0.0 4.0 0.00 0.00 0.00 15 1026.3
20260508052211 56 252 0.0 1.0 0.00 0.00 0.00 15 1026.4
20260508051712 56 293 0.0 1.0 0.00 0.00 0.00 15 1026.3
20260508051214 56 212 0.0 0.0 0.00 0.00 0.00 15 1026.4
20260508050714 56 304 0.0 1.0 0.00 0.00 0.00 15 1026.4
20260508050214 56 274 0.0 0.0 0.00 0.00 0.00 15 1026.4
20260508045712 56 235 0.0 0.0 0.00 0.00 0.00 15 1026.4
20260508045211 57 258 0.0 1.0 0.00 0.00 0.00 15 1026.4
20260508044712 57 269 0.0 0.0 0.00 0.00 0.00 14 1026.3
20260508044211 57 263 0.0 1.0 0.00 0.00 0.00 14 1026.4
20260508043711 57 221 0.0 1.0 0.00 0.00 0.00 14 1026.3
20260508043214 57 256 0.0 0.0 0.00 0.00 0.00 14 1026.3
20260508042714 57 256 0.0 1.0 0.00 0.00 0.00 13 1026.3